Notices

What's New in latest Release from April 7th, 2021:

- Updated Glossary, including Speed of Maximum Gust, and Total Hourly Precipitation

- Updated national and regional climate services offices contacts and prices information

- Addition of station inventory lists for 1981-2010, 1971-2000, and 1961-1990 Normals.

If you haven't already, please take our survey and provide feedback about our website: https://eccc.sondage-survey.ca/f/LanguageSelection.aspx?s=442ca660-fcf1-47c0-95a9-59707d6fd709

Hourly Data Report for May 28, 2020

TRENTON A
ONTARIO
Current Station Operator: DND

44°07'00.000" N
77°32'00.000" W
86.30 m
6158875
71621
YTR

Download Data

Hourly Data (May 2020)
Hourly Data Report for May 28, 2020
TIME
LST
Temp Definition
°C
Dew Point Definition
°C
Rel Hum Definition
%
Precip. Amount Definition
mm

Wind Dir Definition
10's deg

Wind Spd Definition
km/h
Visibility Definition
km
Stn Press Definition
kPa
Hmdx Definition


Wind Chill Definition


Weather Definition


00:00 21.2 14.2 64   20 13 24.1 100.71 25   Clear
01:00 20.6 13.8 65   21 11 24.1 100.70     Mainly Clear
02:00 19.7 13.5 67   20 8 24.1 100.70     Mainly Clear
03:00 19.8 13.3 66   21 9 24.1 100.70     Mostly Cloudy
04:00 19.0 13.2 69   21 4 24.1 100.68     Mostly Cloudy
05:00 17.4 13.1 76     0 24.1 100.69     Mostly Cloudy
06:00 19.6 13.9 70   16 5 24.1 100.68     Mostly Cloudy
07:00 20.0 14.1 69   15 9 24.1 100.66     Cloudy
08:00 20.9 14.7 68   15 5 24.1 100.67 25   Mostly Cloudy
09:00 22.3 15.0 63   18 9 24.1 100.62 26   Mostly Cloudy
10:00 22.6 15.1 63   19 13 24.1 100.61 27   Cloudy
11:00 23.7 15.9 62   19 5 24.1 100.53 28   Cloudy
12:00 23.8 16.0 62   15 13 24.1 100.47 28   Mostly Cloudy
13:00 24.9 16.1 58   16 11 24.1 100.37 30   Mostly Cloudy
14:00 24.5 16.6 61   15 11 24.1 100.29 30   Cloudy
15:00 21.8 17.8 78   14 9 6.4 100.20 28   Rain Showers,Fog
16:00 22.3 17.9 76   10 8 12.9 100.08 28   Cloudy
17:00 21.9 17.9 78   9 8 8.1 99.99 28   Rain Showers,Fog
18:00 21.8 18.3 81     0 2.8 99.93 28   Rain Showers,Fog
19:00 21.2 16.9 76   22 21 9.7 99.95 26   Fog
20:00 18.5 15.1 81   23 28 9.7 100.03     Fog
21:00 17.4 14.2 81   22 17 2.0 100.11     Fog
22:00 17.8 14.8 83   21 15 2.8 100.15     Fog
23:00 17.9 14.8 82   21 11 4.0 100.15     Fog

Notes on Data Quality.

Legend

  • E = Estimated
  • M = Missing
  • NA = Not Available*
  • [empty] = Indicates an unobserved value
Date modified: